Location: Buisson
(44.2787°N, 4.9969°E)
Time: 00:53:47
(UTC+00:00)

IRAS Rocket - Pass Details

Date: 18 April 2021
Orbit: 848 x 877 km, 100.1° (Epoch: 08 May)

Event Time Altitude Azimuth Distance (km) Brightness Sun altitude
Rises 03:28:00 0° 164° (SSE) 3,399 7.2 -14.5°
Reaches altitude 10° 03:30:21 10° 165° (SSE) 2,470 6.5 -14.1°
Maximum altitude 03:35:50 84° 254° (WSW) 865 4.2 -13.2°
Drops below altitude 10° 03:41:24 10° 343° (NNW) 2,503 6.8 -12.4°
Sets 03:43:48 0° 344° (NNW) 3,449 7.5 -12.0°
